Weather in Vereyka

Russia / Moscow Oblast     55°25′58″N   39°18′06″E
temp.,
°C
wind,
m/s
gust,
m/s
humid.,
%
clouds,
%
prec.,
mm/h
press.,
hPa
HPBL,
m
6 march, sat
sat600:00−10wnw22900 0.0 101521
03:00−12w12910 0.0 101621
06:00−12wnw22940 0.0 101521
09:00−10wnw23926 0.0 1016171
12:00−6nw357728 0.0 1016778
15:00−5wnw347161 0.3 10151028
18:00−8w2389100 0.5 101564
21:00−11w239388 0.5 101460
7 march, sun
sun700:00−12sw35920 0.0 101294
03:00−11ssw410916 0.0 1010267
06:00−9ssw6148485 0.0 1005598
09:00−7sw7139292 1.1 1000911
12:00−4sw71491100 1.6 9961099
15:00−2sw71393100 4.0 9921124
18:00−6wnw41274100 1.4 9931266
21:00−10wsw3108267 1.4 996236
8 march, mon
mon800:00−8wsw499578 0.6 996459
03:00−8w269689 2.1 996216
06:00−12w239771 0.1 99552
09:00−9wnw369062 0.1 997254
12:00−8wnw598597 0.0 1000785
15:00−6nw588499 0.2 10031056
18:00−8nw4987100 0.2 1006674
21:00−12nw399494 0.2 1009225
9 march, tue
tue900:00−15nw259751 0.0 101291
03:00−17nw239738 0.0 101369
06:00−19nnw239814 0.0 101555
09:00−17nnw249319 0.0 1017234
12:00−13nnw248380 0.0 1018542
15:00−11nnw358190 0.1 1019850
18:00−14nnw2491100 0.1 1019112
21:00−19nnw239564 0.1 102259
10 march, wed
wed1000:00−22n22980 0.0 102321
03:00−24nnw12960 0.0 102420
06:00−25n119551 0.0 102420
09:00−20ese118775 0.0 1025161
12:00−14se2275100 0.0 1024399
15:00−12ese237496 0.0 1023562
18:00−16ese228957 0.0 102320
21:00−19ese239244 0.0 102443